This demonstration page uses our WeatherBlox Daily Observations layout. Learn more.

Left ArrowRight Arrow

Hourly Observations for August 3, 2021

Temp ( °F °C ) Dew Point ( °F °C ) Humidity (%) Winds ( mph kmh ) Pressure ( in mb ) Visibility ( mi km ) Precip ( " mm )
12:56 am 00:56 Mostly Cloudy 63 17.2 58 14.4 84 84 SSE 8 13 30.11 1020 10 16 0.00 0.00
1:56 am 01:56 Cloudy 64 17.8 58 14.4 81 81 SSE 8 13 30.10 1019 10 16 0.00 0.00
2:56 am 02:56 Mostly Cloudy 61 16.1 57 13.9 87 87 ESE 7 11 30.10 1019 9 14 0.00 0.00
3:56 am 03:56 Mostly Clear 60 15.6 56 13.3 86 86 SSE 5 7 30.09 1019 9 14 0.00 0.00
4:56 am 04:56 Mostly Cloudy 60 15.6 57 13.9 90 90 SSE 5 7 30.09 1019 8 13 0.00 0.00
5:56 am 05:56 Mostly Cloudy 59 15 57 13.9 93 93 SSE 7 11 30.09 1019 7 11 0.00 0.00
6:56 am 06:56 Mostly Cloudy with Mist and Fog 60 15.6 57 13.9 90 90 SE 8 13 30.10 1019 5 8 0.00 0.00
7:56 am 07:56 Hazy 62 16.7 57 13.9 84 84 SE 8 13 30.10 1019 6 10 0.00 0.00
8:56 am 08:56 Hazy 66 18.9 58 14.4 75 75 SSE 12 19 30.10 1019 5 8 0.00 0.00
9:56 am 09:56 Hazy 70 21.1 59 15 68 68 S 15 24 30.09 1019 6 10 0.00 0.00
10:56 am 10:56 Sunny 73 22.8 60 15.6 64 64 SSE 17 28 30.08 1019 7 11 0.00 0.00
11:56 am 11:56 Sunny 76 24.4 60 15.6 58 58 SSE 17 28 30.07 1018 8 13 0.00 0.00
12:56 pm 12:56 Sunny 79 26.1 62 16.7 56 56 SSE 16 26 30.05 1018 8 13 0.00 0.00
1:56 pm 13:56 Sunny 80 26.7 60 15.6 51 51 SSE 18 30 30.04 1017 10 16 0.00 0.00
2:56 pm 14:56 Sunny 81 27.2 61 16.1 51 51 SSE 15 24 30.03 1017 10 16 0.00 0.00
3:56 pm 15:56 Sunny 82 27.8 61 16.1 49 49 S 16 26 30.02 1017 10 16 0.00 0.00
4:56 pm 16:56 Sunny 83 28.3 62 16.7 49 49 SE 14 22 30.00 1016 10 16 0.00 0.00
5:56 pm 17:56 Sunny 81 27.2 62 16.7 53 53 SE 14 22 30.00 1016 10 16 0.00 0.00
6:56 pm 18:56 Sunny 80 26.7 62 16.7 54 54 ESE 12 19 30.00 1016 10 16 0.00 0.00
7:56 pm 19:56 Sunny 75 23.9 63 17.2 66 66 ESE 12 19 30.00 1016 10 16 0.00 0.00
8:56 pm 20:56 Clear 71 21.7 62 16.7 73 73 ESE 9 15 30.01 1016 10 16 0.00 0.00
9:56 pm 21:56 Clear 68 20 62 16.7 81 81 ESE 9 15 30.03 1017 10 16 0.00 0.00
10:56 pm 22:56 Clear 67 19.4 61 16.1 81 81 SE 9 15 30.03 1017 10 16 0.00 0.00
11:56 pm 23:56 Clear 65 18.3 60 15.6 84 84 SE 10 17 30.03 1017 10 16 0.00 0.00

Powered by AerisWeather